Regional Weather Roundup
Issued by NWS

Home | Current Version | Previous Version | Text Only | Print | Product List | Glossary Off
Versions: 1 2 3 4 5 6 7 8 9 10 11 12 13 14 15 16 17 18 19 20 21 22 23 24 25 26 27 28 29 30 31 32 33 34 35 36 37 38 39 40 41 42 43 44 45 46 47 48 49 50

000
ASUS43 KLSX 260910
RWRMO

WEATHER SUMMARY FOR MISSOURI
NATIONAL WEATHER SERVICE SPRINGFIELD MO
400 AM CDT TUE JUL 26 2016

NOTE: "FAIR" INDICATES FEW OR NO CLOUDS BELOW 12,000 FEET WITH NO
       SIGNIFICANT WEATHER AND/OR OBSTRUCTIONS TO VISIBILITY.
       CURRENT SKY AND/OR WEATHER CONDITIONS ARE NOT AVAILABLE FOR
       CHILLICOTHE AND FARMINGTON.

MOZ001>031-035>038-043-044-053-054-261000-
...NORTHERN AND WESTERN MISSOURI...

CITY           SKY/WX    TMP DP  RH WIND       PRES   REMARKS
KANSAS CTY INT CLEAR     70  67  90 NE5       30.05S
KANSAS C DTWN  CLEAR     74  67  78 NE5       30.04R
LEE`S SUMMIT   CLOUDY    73  69  87 E3        30.05S
ST JOSEPH      CLEAR     65  63  93 N5        30.05S
CHILLICOTHE      N/A     69  67  93 CALM      30.06F
KIRKSVILLE     CLEAR     63  62  97 N3        30.07S

$$
MOZ066>068-077>081-088>096-101>105-261000-
...SOUTHWEST MISSOURI...

CITY           SKY/WX    TMP DP  RH WIND       PRES   REMARKS
SPRINGFIELD    CLOUDY    74  71  91 E5        30.02F
JOPLIN         CLOUDY    74  72  93 E3        30.01F
BRANSON        CLOUDY    72  72 100 CALM      30.03S

$$
MOZ032>034-039>042-045>050-055>058-069>072-261000-
...CENTRAL MISSOURI...

CITY           SKY/WX    TMP DP  RH WIND       PRES   REMARKS
COLUMBIA       CLEAR     70  69  97 NE6       30.04S
JEFFERSON CITY CLEAR     70  69  97 CALM      30.02F
ROLLA          CLEAR     71  69  93 N3        30.02F
SEDALIA        CLOUDY    72  70  93 CALM      30.05S
WHITEMAN AFB   PTCLDY    72  72 100 E2        30.03S
OSAGE BEACH    PTCLDY    71  70  96 NE3       30.03F

$$
MOZ051-052-059>065-261000-
...EAST CENTRAL MISSOURI...

CITY           SKY/WX    TMP DP  RH WIND       PRES   REMARKS
ST LOUIS INTL  CLOUDY    79  73  82 CALM      30.01S
SPIRIT OF STL  CLOUDY    77  73  87 N3        30.00S
ST CHARLES     CLOUDY    76  74  93 CALM      30.00S

$$
MOZ072>076-082>087-097>100-106>115-261000-
...SOUTH CENTRAL AND SOUTHEAST MISSOURI...

CITY           SKY/WX    TMP DP  RH WIND       PRES   REMARKS
CAPE GIRARDEAU CLEAR     74  73  97 SE3       29.99S
FARMINGTON     PTCLDY    74  71  91 CALM      30.03S
POPLAR BLUFF   CLOUDY    76  74  93 CALM      29.99R FOG
WEST PLAINS    CLOUDY    75  72  90 CALM      30.05R

$$




USA.gov is the U.S. government's official web portal to all federal, state and local government web resources and services.